Location: St. Louis
(38.6270°N, 90.1994°W)
Time: 20:42:40
(UTC-06:00)

Vanguard 1 - Pass Details

Date: 06 December 2021
Orbit: 652 x 3830 km, 34.2° (Epoch: 21 January)

Event Time Altitude Azimuth Distance (km) Brightness Sun altitude
Exits shadow 02:20:55 69° 129° (SE) 3,636 12.6 -54.4°
Drops below altitude 10° 02:35:33 10° 102° (ESE) 5,381 14.2 -51.7°
Sets 02:38:53 0° 101° (E) 6,056 14.7 -51.0°
